Location: Franzen
(48.6167°N, 15.3833°E)
Time: 07:35:51
(UTC+00:00)

Tiros 1 - All Passes

Search period start: 24 July 2021 00:00
Search period end: 03 August 2021 00:00
Orbit: 630 x 663 km, 48.4° (Epoch: 23 July)

Date Brightness Start Highest point End Pass type
(mag) Time Alt. Az. Time Alt. Az. Time Alt. Az.
24 Jul - 00:26:20 10° W 00:31:00 68° SSW 00:35:35 10° ESE visible
24 Jul - 02:08:53 10° W 02:12:42 25° SW 02:16:29 10° SSE visible
24 Jul - 19:46:38 10° SSW 19:50:47 31° SSE 19:54:54 10° E visible
24 Jul - 21:27:53 10° WSW 21:32:36 75° SSE 21:37:16 10° E visible
24 Jul - 23:10:05 10° W 23:14:48 86° S 23:19:28 10° E visible
25 Jul - 00:52:21 10° W 00:56:49 45° SSW 01:01:14 10° SE visible
25 Jul - 02:35:53 10° WSW 02:38:10 14° SW 02:40:26 10° SSW visible
25 Jul - 18:32:07 10° S 18:35:01 16° SE 18:37:55 10° E daylight
25 Jul - 20:11:54 10° SW 20:16:29 50° SSE 20:21:02 10° E visible
25 Jul - 21:53:49 10° W 21:58:34 88° S 22:03:15 10° E visible
25 Jul - 23:36:04 10° W 23:40:44 70° SSW 23:45:22 10° ESE visible
26 Jul - 01:18:33 10° W 01:22:29 27° SW 01:26:22 10° SSE visible
26 Jul - 18:56:28 10° SSW 19:00:33 29° SSE 19:04:37 10° E daylight
26 Jul - 20:37:37 10° WSW 20:42:20 72° SSE 20:47:02 10° E visible
26 Jul - 22:19:49 10° W 22:24:33 87° S 22:29:13 10° E visible
27 Jul - 00:02:04 10° W 00:06:35 48° SSW 00:11:02 10° SE visible
27 Jul - 01:45:25 10° WSW 01:47:58 15° SW 01:50:32 10° S visible
27 Jul - 17:42:07 10° S 17:44:50 15° SE 17:47:30 10° ESE daylight
27 Jul - 19:21:41 10° SW 19:26:14 48° SSE 19:30:47 10° E visible
27 Jul - 21:03:33 10° W 21:08:18 87° S 21:13:00 10° E visible
27 Jul - 22:45:48 10° W 22:50:30 73° SSW 22:55:09 10° ESE visible
28 Jul - 00:28:14 10° W 00:32:16 29° SW 00:36:15 10° SSE visible
28 Jul - 18:06:18 10° SSW 18:10:19 28° SE 18:14:20 10° E daylight
28 Jul - 19:47:21 10° WSW 19:52:05 70° SSE 19:56:47 10° E visible
28 Jul - 21:29:32 10° W 21:34:17 88° S 21:38:59 10° E visible
28 Jul - 23:11:47 10° W 23:16:21 50° SSW 23:20:51 10° SE visible
29 Jul - 00:54:58 10° W 00:57:47 16° SW 01:00:34 10° S visible
29 Jul - 16:52:09 10° SSE 16:54:37 14° SE 16:57:04 10° ESE daylight
29 Jul - 18:31:27 10° SW 18:36:00 46° SSE 18:40:32 10° E daylight
29 Jul - 20:13:16 10° W 20:18:02 86° S 20:22:45 10° E visible
29 Jul - 21:55:31 10° W 22:00:14 75° SSW 22:04:54 10° ESE visible
29 Jul - 23:37:56 10° W 23:42:03 31° SSW 23:46:07 10° SSE visible
30 Jul - 17:16:09 10° SSW 17:20:06 26° SE 17:24:02 10° E daylight
30 Jul - 18:57:05 10° WSW 19:01:49 68° SSE 19:06:32 10° E daylight
30 Jul - 20:39:15 10° W 20:44:01 88° S 20:48:44 10° E visible
30 Jul - 22:21:31 10° W 22:26:06 53° SSW 22:30:39 10° SE visible
31 Jul - 00:04:33 10° W 00:07:35 17° SW 00:10:35 10° S visible
31 Jul - 16:02:14 10° SSE 16:04:24 13° SE 16:06:35 10° ESE daylight
31 Jul - 17:41:14 10° SW 17:45:45 44° SSE 17:50:16 10° E daylight
31 Jul - 19:22:59 10° W 19:27:46 85° S 19:32:30 10° E visible
31 Jul - 21:05:14 10° W 21:09:59 77° SSW 21:14:40 10° ESE visible
31 Jul - 22:47:37 10° W 22:51:50 33° SSW 22:55:59 10° SSE visible
01 Aug - 16:26:01 10° SSW 16:29:53 25° SE 16:33:43 10° E daylight
01 Aug - 18:06:50 10° WSW 18:11:34 66° SSE 18:16:16 10° E daylight
01 Aug - 19:48:58 10° W 19:53:45 89° S 19:58:28 10° E visible
01 Aug - 21:31:14 10° W 21:35:51 56° SSW 21:40:26 10° SE visible
01 Aug - 23:14:09 10° W 23:17:22 18° SW 23:20:35 10° S visible
02 Aug - 15:12:23 10° SSE 15:14:12 12° SE 15:16:01 10° ESE daylight
02 Aug - 16:51:01 10° SW 16:55:31 41° SSE 16:59:59 10° E daylight
02 Aug - 18:32:42 10° WSW 18:37:30 84° S 18:42:15 10° E daylight
02 Aug - 20:14:58 10° W 20:19:43 79° SSW 20:24:25 10° ESE visible
02 Aug - 21:57:19 10° W 22:01:36 35° SSW 22:05:50 10° SE visible
